Time,TemperatureF,DewpointF,PressureIn,WindDirection,WindDirectionDegrees,WindSpeedMPH,WindSpeedGustMPH,Humidity,HourlyPrecipIn,Conditions,Clouds,dailyrainin,SoftwareType,DateUTC
2013-11-21 00:02:00,18.8,11.6,30.19,NNW,327,11.0,17.0,73,0.00,,OVC014,0.00,VWS V14.00,2013-11-21 06:02:00,
2013-11-21 00:07:00,18.8,11.6,30.19,NNW,342,0.0,17.0,73,0.00,,OVC014,0.00,VWS V14.00,2013-11-21 06:07:00,
2013-11-21 00:12:00,18.7,11.5,30.19,NNW,332,4.0,23.0,73,0.00,,OVC014,0.00,VWS V14.00,2013-11-21 06:12:00,
2013-11-21 00:17:00,18.7,11.5,30.20,NNW,346,6.0,23.0,73,0.00,,OVC014,0.00,VWS V14.00,2013-11-21 06:17:00,
2013-11-21 00:22:00,18.6,11.4,30.20,NW,316,6.0,19.0,73,0.00,,OVC014,0.00,VWS V14.00,2013-11-21 06:22:00,
2013-11-21 00:27:00,18.5,11.0,30.20,NNW,335,17.0,20.0,72,0.00,,OVC014,0.00,VWS V14.00,2013-11-21 06:27:00,
2013-11-21 00:32:00,18.3,10.8,30.20,NNW,327,13.0,14.0,72,0.00,,OVC014,0.00,VWS V14.00,2013-11-21 06:32:00,
2013-11-21 00:37:00,18.3,10.8,30.20,NNW,344,7.0,18.0,72,0.00,,OVC014,0.00,VWS V14.00,2013-11-21 06:37:00,
2013-11-21 00:42:00,18.2,10.7,30.20,NNW,336,13.0,18.0,72,0.00,,OVC014,0.00,VWS V14.00,2013-11-21 06:42:00,
2013-11-21 00:47:00,18.1,10.6,30.21,NNW,327,6.0,20.0,72,0.00,,OVC014,0.00,VWS V14.00,2013-11-21 06:47:00,
2013-11-21 00:52:00,17.9,10.4,30.21,NW,323,5.0,15.0,72,0.00,,OVC021,0.00,VWS V14.00,2013-11-21 06:52:00,
2013-11-21 00:57:00,17.8,10.3,30.22,NW,323,5.0,24.0,72,0.00,,OVC021,0.00,VWS V14.00,2013-11-21 06:57:00,
2013-11-21 01:02:00,17.6,10.1,30.22,NNW,334,2.0,14.0,72,0.00,,,0.00,VWS V14.00,2013-11-21 07:02:00,
2013-11-21 01:07:00,17.4,9.6,30.22,NW,325,13.0,19.0,71,0.00,,,0.00,VWS V14.00,2013-11-21 07:07:00,
2013-11-21 01:12:00,17.2,9.7,30.22,NW,325,12.0,19.0,72,0.00,,,0.00,VWS V14.00,2013-11-21 07:12:00,
2013-11-21 01:17:00,17.0,9.6,30.23,NNW,331,5.0,19.0,72,0.00,,,0.00,VWS V14.00,2013-11-21 07:17:00,
2013-11-21 01:22:00,17.1,9.6,30.23,NNW,346,11.0,17.0,72,0.00,,,0.00,VWS V14.00,2013-11-21 07:22:00,
2013-11-21 01:27:00,16.9,9.8,30.23,NW,323,11.0,24.0,73,0.00,,,0.00,VWS V14.00,2013-11-21 07:27:00,
2013-11-21 01:32:00,16.8,9.7,30.23,NNW,333,5.0,14.0,73,0.00,,,0.00,VWS V14.00,2013-11-21 07:32:00,
2013-11-21 01:38:00,16.7,9.6,30.23,NNW,334,15.0,20.0,73,0.00,,,0.00,VWS V14.00,2013-11-21 07:38:00,
2013-11-21 01:43:00,16.7,9.6,30.24,NNW,339,5.0,19.0,73,0.00,,,0.00,VWS V14.00,2013-11-21 07:43:00,
2013-11-21 01:48:00,16.5,9.4,30.24,NNW,346,5.0,19.0,73,0.00,,,0.00,VWS V14.00,2013-11-21 07:48:00,
2013-11-21 01:53:00,16.5,9.4,30.24,North,350,10.0,24.0,73,0.00,,,0.00,VWS V14.00,2013-11-21 07:53:00,
2013-11-21 01:58:00,16.5,9.1,30.25,NNW,329,19.0,24.0,72,0.00,,,0.00,VWS V14.00,2013-11-21 07:58:00,
2013-11-21 02:03:00,16.5,9.4,30.25,NW,310,10.0,15.0,73,0.00,,OVC100,0.00,VWS V14.00,2013-11-21 08:03:00,
2013-11-21 02:08:00,16.5,9.1,30.25,NNW,339,10.0,18.0,72,0.00,,OVC100,0.00,VWS V14.00,2013-11-21 08:08:00,
2013-11-21 02:13:00,16.5,9.4,30.25,NNW,334,11.0,22.0,73,0.00,,OVC100,0.00,VWS V14.00,2013-11-21 08:13:00,
2013-11-21 02:18:00,16.4,9.3,30.25,NNW,345,4.0,22.0,73,0.00,,,0.00,VWS V14.00,2013-11-21 08:18:00,
2013-11-21 02:23:00,16.4,9.3,30.26,NNW,339,15.0,18.0,73,0.00,,,0.00,VWS V14.00,2013-11-21 08:23:00,
2013-11-21 02:28:00,16.4,9.3,30.26,NNW,327,2.0,20.0,73,0.00,,,0.00,VWS V14.00,2013-11-21 08:28:00,
2013-11-21 02:33:00,16.4,9.3,30.27,North,349,9.0,18.0,73,0.00,,,0.00,VWS V14.00,2013-11-21 08:33:00,
2013-11-21 02:38:00,16.4,9.3,30.27,NNW,344,9.0,18.0,73,0.00,,,0.00,VWS V14.00,2013-11-21 08:38:00,
2013-11-21 02:43:00,16.4,9.3,30.27,NNW,332,2.0,12.0,73,0.00,,,0.00,VWS V14.00,2013-11-21 08:43:00,
2013-11-21 02:48:00,16.4,9.3,30.27,NNW,339,6.0,22.0,73,0.00,,,0.00,VWS V14.00,2013-11-21 08:48:00,
2013-11-21 02:53:00,16.3,9.2,30.28,NNW,338,8.0,19.0,73,0.00,,,0.00,VWS V14.00,2013-11-21 08:53:00,
2013-11-21 02:58:00,16.3,9.5,30.28,NW,317,12.0,20.0,74,0.00,,,0.00,VWS V14.00,2013-11-21 08:58:00,
2013-11-21 03:03:00,16.3,9.5,30.28,NNW,334,3.0,12.0,74,0.00,,,0.00,VWS V14.00,2013-11-21 09:03:00,
2013-11-21 03:08:00,16.3,9.5,30.28,NNW,328,16.0,19.0,74,0.00,,,0.00,VWS V14.00,2013-11-21 09:08:00,
2013-11-21 03:13:00,16.2,9.4,30.29,NW,309,13.0,18.0,74,0.00,,,0.00,VWS V14.00,2013-11-21 09:13:00,
2013-11-21 03:18:00,16.1,9.3,30.28,NNW,348,9.0,18.0,74,0.00,,,0.00,VWS V14.00,2013-11-21 09:18:00,
2013-11-21 03:23:00,16.1,9.3,30.29,NNW,335,11.0,20.0,74,0.00,,,0.00,VWS V14.00,2013-11-21 09:23:00,
2013-11-21 03:28:00,16.1,9.3,30.29,NNW,333,11.0,21.0,74,0.00,,,0.00,VWS V14.00,2013-11-21 09:28:00,
2013-11-21 03:33:00,16.1,9.3,30.28,NNW,347,11.0,18.0,74,0.00,,,0.00,VWS V14.00,2013-11-21 09:33:00,
2013-11-21 03:38:00,16.1,9.3,30.29,NNW,340,7.0,24.0,74,0.00,,,0.00,VWS V14.00,2013-11-21 09:38:00,
2013-11-21 03:43:00,16.2,9.1,30.30,NNW,330,9.0,22.0,73,0.00,,,0.00,VWS V14.00,2013-11-21 09:43:00,
2013-11-21 03:48:00,16.0,8.9,30.31,North,355,12.0,27.0,73,0.00,,,0.00,VWS V14.00,2013-11-21 09:48:00,
2013-11-21 03:53:00,15.9,8.5,30.30,North,355,10.0,27.0,72,0.00,,,0.00,VWS V14.00,2013-11-21 09:53:00,
2013-11-21 03:58:00,15.9,8.2,30.31,NNW,335,7.0,27.0,71,0.00,,,0.00,VWS V14.00,2013-11-21 09:58:00,
2013-11-21 04:03:00,15.9,8.2,30.31,NNW,328,12.0,18.0,71,0.00,,OVC012,0.00,VWS V14.00,2013-11-21 10:03:00,
2013-11-21 04:08:00,16.0,8.6,30.31,NNW,328,18.0,19.0,72,0.00,,OVC012,0.00,VWS V14.00,2013-11-21 10:08:00,
2013-11-21 04:13:00,16.0,8.3,30.32,North,359,7.0,18.0,71,0.00,,OVC012,0.00,VWS V14.00,2013-11-21 10:13:00,
2013-11-21 04:18:00,16.0,8.3,30.32,North,351,7.0,20.0,71,0.00,,OVC012,0.00,VWS V14.00,2013-11-21 10:18:00,
2013-11-21 04:23:00,16.1,8.4,30.32,NNW,338,9.0,21.0,71,0.00,,OVC012,0.00,VWS V14.00,2013-11-21 10:23:00,
2013-11-21 04:28:00,16.0,8.6,30.32,NNW,336,13.0,21.0,72,0.00,,OVC012,0.00,VWS V14.00,2013-11-21 10:28:00,
2013-11-21 04:33:00,15.8,8.4,30.33,NW,322,15.0,19.0,72,0.00,,OVC012,0.00,VWS V14.00,2013-11-21 10:33:00,
2013-11-21 04:38:00,15.5,8.1,30.33,North,355,14.0,21.0,72,0.00,,OVC012,0.00,VWS V14.00,2013-11-21 10:38:00,
2013-11-21 04:43:00,15.5,8.1,30.33,NW,326,14.0,19.0,72,0.00,,OVC012,0.00,VWS V14.00,2013-11-21 10:43:00,
2013-11-21 04:48:00,15.5,8.1,30.34,NNW,343,13.0,23.0,72,0.00,,OVC012,0.00,VWS V14.00,2013-11-21 10:48:00,
2013-11-21 04:53:00,15.5,7.8,30.34,NNW,341,13.0,21.0,71,0.00,,OVC012,0.00,VWS V14.00,2013-11-21 10:53:00,
2013-11-21 04:58:00,15.5,7.8,30.35,North,357,12.0,24.0,71,0.00,,OVC012,0.00,VWS V14.00,2013-11-21 10:58:00,
2013-11-21 05:03:00,15.5,7.8,30.35,NNW,329,1.0,16.0,71,0.00,,,0.00,VWS V14.00,2013-11-21 11:03:00,
2013-11-21 05:08:00,15.6,8.2,30.36,NW,326,10.0,19.0,72,0.00,,,0.00,VWS V14.00,2013-11-21 11:08:00,
2013-11-21 05:13:00,15.5,8.1,30.36,North,349,8.0,19.0,72,0.00,,,0.00,VWS V14.00,2013-11-21 11:13:00,
2013-11-21 05:18:00,15.5,7.8,30.35,NW,321,9.0,19.0,71,0.00,,,0.00,VWS V14.00,2013-11-21 11:18:00,
2013-11-21 05:23:00,15.5,8.1,30.35,North,355,12.0,21.0,72,0.00,,,0.00,VWS V14.00,2013-11-21 11:23:00,
2013-11-21 05:28:00,15.4,7.7,30.36,NNW,336,9.0,21.0,71,0.00,,,0.00,VWS V14.00,2013-11-21 11:28:00,
2013-11-21 05:33:00,15.3,7.6,30.36,NNW,335,4.0,20.0,71,0.00,,,0.00,VWS V14.00,2013-11-21 11:33:00,
2013-11-21 05:38:00,15.4,8.0,30.36,NNW,348,17.0,20.0,72,0.00,,,0.00,VWS V14.00,2013-11-21 11:38:00,
2013-11-21 05:43:00,15.4,8.0,30.37,NNW,327,18.0,21.0,72,0.00,,,0.00,VWS V14.00,2013-11-21 11:43:00,
2013-11-21 05:48:00,15.4,7.7,30.37,NNW,340,8.0,21.0,71,0.00,,,0.00,VWS V14.00,2013-11-21 11:48:00,
2013-11-21 05:53:00,15.3,7.6,30.37,NNW,341,8.0,19.0,71,0.00,,,0.00,VWS V14.00,2013-11-21 11:53:00,
2013-11-21 05:58:00,15.2,7.5,30.37,North,358,8.0,20.0,71,0.00,,,0.00,VWS V14.00,2013-11-21 11:58:00,
2013-11-21 06:03:00,15.2,7.5,30.38,NNW,346,12.0,22.0,71,0.00,,OVC012,0.00,VWS V14.00,2013-11-21 12:03:00,
2013-11-21 06:08:00,15.1,7.4,30.38,NNW,331,18.0,22.0,71,0.00,,OVC012,0.00,VWS V14.00,2013-11-21 12:08:00,
2013-11-21 06:14:00,15.0,7.3,30.39,NNW,344,15.0,22.0,71,0.00,,OVC012,0.00,VWS V14.00,2013-11-21 12:14:00,
2013-11-21 06:18:00,15.0,7.3,30.39,NNW,340,14.0,22.0,71,0.00,,OVC012,0.00,VWS V14.00,2013-11-21 12:18:00,
2013-11-21 06:24:00,15.0,7.3,30.39,NNW,334,4.0,16.0,71,0.00,,OVC012,0.00,VWS V14.00,2013-11-21 12:24:00,
2013-11-21 06:29:00,15.0,7.3,30.39,NNW,340,15.0,23.0,71,0.01,,OVC012,0.01,VWS V14.00,2013-11-21 12:29:00,
2013-11-21 06:34:00,15.0,7.3,30.39,North,355,7.0,21.0,71,0.01,,OVC012,0.01,VWS V14.00,2013-11-21 12:34:00,
2013-11-21 06:39:00,14.9,7.2,30.40,North,349,7.0,21.0,71,0.01,,OVC012,0.01,VWS V14.00,2013-11-21 12:39:00,
2013-11-21 06:44:00,14.9,7.2,30.40,North,357,10.0,22.0,71,0.01,,OVC012,0.01,VWS V14.00,2013-11-21 12:44:00,
2013-11-21 06:49:00,14.8,7.1,30.40,North,349,9.0,22.0,71,0.01,,OVC012,0.01,VWS V14.00,2013-11-21 12:49:00,
2013-11-21 06:54:00,14.7,7.0,30.41,NNW,334,12.0,20.0,71,0.01,,OVC012,0.01,VWS V14.00,2013-11-21 12:54:00,
2013-11-21 06:59:00,14.6,6.9,30.41,NW,319,9.0,20.0,71,0.01,,OVC012,0.01,VWS V14.00,2013-11-21 12:59:00,
2013-11-21 07:04:00,14.5,6.8,30.42,NNW,329,12.0,19.0,71,0.01,,,0.01,VWS V14.00,2013-11-21 13:04:00,
2013-11-21 07:09:00,14.3,6.3,30.42,NNW,328,13.0,23.0,70,0.01,,,0.01,VWS V14.00,2013-11-21 13:09:00,
2013-11-21 07:14:00,14.2,6.2,30.42,NNW,341,17.0,20.0,70,0.01,,,0.01,VWS V14.00,2013-11-21 13:14:00,
2013-11-21 07:19:00,14.2,6.2,30.43,NNW,331,15.0,21.0,70,0.01,,,0.01,VWS V14.00,2013-11-21 13:19:00,
2013-11-21 07:24:00,14.2,6.2,30.43,NNW,347,13.0,19.0,70,0.01,,,0.01,VWS V14.00,2013-11-21 13:24:00,
2013-11-21 07:29:00,14.1,5.8,30.43,NNW,347,11.0,19.0,69,0.01,,,0.01,VWS V14.00,2013-11-21 13:29:00,
2013-11-21 07:34:00,14.1,6.1,30.44,NNW,342,10.0,19.0,70,0.00,,,0.01,VWS V14.00,2013-11-21 13:34:00,
2013-11-21 07:39:00,14.1,6.1,30.45,NNW,332,5.0,19.0,70,0.00,,,0.01,VWS V14.00,2013-11-21 13:39:00,
2013-11-21 07:44:00,14.0,5.7,30.45,NNW,344,9.0,22.0,69,0.00,,,0.01,VWS V14.00,2013-11-21 13:44:00,
2013-11-21 07:49:00,14.0,5.7,30.45,NNW,327,11.0,22.0,69,0.00,,,0.01,VWS V14.00,2013-11-21 13:49:00,
2013-11-21 07:54:00,13.9,5.9,30.45,North,349,6.0,15.0,70,0.00,,,0.01,VWS V14.00,2013-11-21 13:54:00,
2013-11-21 07:59:00,13.9,5.9,30.45,North,349,10.0,17.0,70,0.00,,,0.01,VWS V14.00,2013-11-21 13:59:00,
2013-11-21 08:04:00,13.9,5.9,30.45,NNW,338,8.0,20.0,70,0.00,,OVC012,0.01,VWS V14.00,2013-11-21 14:04:00,
2013-11-21 08:09:00,13.8,5.8,30.45,NNW,337,10.0,20.0,70,0.00,,OVC012,0.01,VWS V14.00,2013-11-21 14:09:00,
2013-11-21 08:14:00,13.7,5.4,30.45,NNW,332,14.0,21.0,69,0.00,,OVC012,0.01,VWS V14.00,2013-11-21 14:14:00,
2013-11-21 08:19:00,13.6,5.3,30.45,NNW,342,11.0,21.0,69,0.00,,OVC012,0.01,VWS V14.00,2013-11-21 14:19:00,
2013-11-21 08:24:00,13.6,5.3,30.46,NNW,331,10.0,21.0,69,0.00,,OVC012,0.01,VWS V14.00,2013-11-21 14:24:00,
2013-11-21 08:29:00,13.4,5.1,30.46,NNW,327,3.0,22.0,69,0.00,,OVC012,0.01,VWS V14.00,2013-11-21 14:29:00,
2013-11-21 08:34:00,13.4,5.1,30.46,North,350,19.0,19.0,69,0.00,,OVC012,0.01,VWS V14.00,2013-11-21 14:34:00,
2013-11-21 08:39:00,13.4,5.1,30.47,NNW,337,11.0,19.0,69,0.00,,OVC012,0.01,VWS V14.00,2013-11-21 14:39:00,
2013-11-21 08:44:00,13.5,5.2,30.47,NNW,342,11.0,17.0,69,0.00,,OVC012,0.01,VWS V14.00,2013-11-21 14:44:00,
2013-11-21 08:49:00,13.5,5.2,30.48,NW,326,5.0,17.0,69,0.00,,OVC012,0.01,VWS V14.00,2013-11-21 14:49:00,
2013-11-21 08:54:00,13.5,5.2,30.48,NNW,347,9.0,16.0,69,0.00,,OVC012,0.01,VWS V14.00,2013-11-21 14:54:00,
2013-11-21 08:59:00,13.7,5.4,30.48,NNW,332,1.0,16.0,69,0.00,,OVC012,0.01,VWS V14.00,2013-11-21 14:59:00,
2013-11-21 09:04:00,13.7,5.4,30.49,NNW,339,11.0,16.0,69,0.00,,OVC012,0.01,VWS V14.00,2013-11-21 15:04:00,
2013-11-21 09:09:00,13.6,5.0,30.49,NNW,337,3.0,22.0,68,0.00,,OVC012,0.01,VWS V14.00,2013-11-21 15:09:00,
2013-11-21 09:14:00,13.5,4.9,30.49,NNW,333,15.0,18.0,68,0.00,,OVC012,0.01,VWS V14.00,2013-11-21 15:14:00,
2013-11-21 09:19:00,13.4,4.8,30.50,North,355,6.0,18.0,68,0.00,,OVC012,0.01,VWS V14.00,2013-11-21 15:19:00,
2013-11-21 09:24:00,13.5,4.9,30.50,North,353,4.0,16.0,68,0.00,,OVC012,0.01,VWS V14.00,2013-11-21 15:24:00,
2013-11-21 09:29:00,13.6,5.0,30.50,NNW,345,5.0,18.0,68,0.00,,OVC012,0.01,VWS V14.00,2013-11-21 15:29:00,
2013-11-21 09:34:00,13.7,5.1,30.50,NW,324,11.0,17.0,68,0.00,,OVC012,0.01,VWS V14.00,2013-11-21 15:34:00,
2013-11-21 09:39:00,13.8,5.2,30.50,North,356,14.0,17.0,68,0.00,,OVC012,0.01,VWS V14.00,2013-11-21 15:39:00,
2013-11-21 09:44:00,13.8,5.2,30.51,NNW,337,12.0,15.0,68,0.00,,OVC012,0.01,VWS V14.00,2013-11-21 15:44:00,
2013-11-21 09:49:00,14.0,5.4,30.51,NW,324,10.0,15.0,68,0.00,,OVC012,0.01,VWS V14.00,2013-11-21 15:49:00,
2013-11-21 09:54:00,13.9,5.3,30.51,NNW,339,6.0,16.0,68,0.00,,OVC012,0.01,VWS V14.00,2013-11-21 15:54:00,
2013-11-21 10:00:00,14.0,5.4,30.51,NNW,332,4.0,16.0,68,0.00,,OVC012,0.01,VWS V14.00,2013-11-21 16:00:00,
2013-11-21 10:05:00,14.0,5.4,30.51,NNW,336,4.0,15.0,68,0.00,,OVC012,0.01,VWS V14.00,2013-11-21 16:05:00,
2013-11-21 10:10:00,14.0,5.1,30.52,NW,311,12.0,15.0,67,0.00,,OVC012,0.01,VWS V14.00,2013-11-21 16:10:00,
2013-11-21 10:15:00,13.9,5.3,30.52,NW,325,11.0,15.0,68,0.00,,OVC012,0.01,VWS V14.00,2013-11-21 16:15:00,
2013-11-21 10:20:00,14.0,5.1,30.52,NNW,338,5.0,7.0,67,0.00,,OVC012,0.01,VWS V14.00,2013-11-21 16:20:00,
2013-11-21 10:25:00,13.9,5.0,30.52,NNW,337,16.0,17.0,67,0.00,,OVC012,0.01,VWS V14.00,2013-11-21 16:25:00,
2013-11-21 10:30:00,13.9,5.0,30.52,North,356,15.0,15.0,67,0.00,,OVC012,0.01,VWS V14.00,2013-11-21 16:30:00,
2013-11-21 10:35:00,13.8,4.9,30.52,NNW,339,9.0,16.0,67,0.00,,OVC012,0.01,VWS V14.00,2013-11-21 16:35:00,
2013-11-21 10:40:00,13.8,4.6,30.52,NW,322,13.0,14.0,66,0.00,,OVC012,0.01,VWS V14.00,2013-11-21 16:40:00,
2013-11-21 10:45:00,13.8,4.6,30.53,NNW,337,10.0,17.0,66,0.00,,OVC012,0.01,VWS V14.00,2013-11-21 16:45:00,
2013-11-21 10:50:00,13.8,4.6,30.52,North,351,7.0,12.0,66,0.00,,OVC012,0.01,VWS V14.00,2013-11-21 16:50:00,
2013-11-21 10:55:00,14.0,4.8,30.53,NNW,330,12.0,20.0,66,0.00,,OVC012,0.01,VWS V14.00,2013-11-21 16:55:00,
2013-11-21 11:00:00,14.0,4.8,30.53,NNW,338,9.0,14.0,66,0.00,,OVC012,0.01,VWS V14.00,2013-11-21 17:00:00,
2013-11-21 11:05:00,14.1,4.8,30.53,NNW,340,5.0,16.0,66,0.00,,BKN010,0.01,VWS V14.00,2013-11-21 17:05:00,
2013-11-21 11:10:00,14.2,4.9,30.53,North,355,6.0,6.0,66,0.00,,BKN010,0.01,VWS V14.00,2013-11-21 17:10:00,
2013-11-21 11:15:00,14.3,5.0,30.54,NNW,330,0.0,19.0,66,0.00,,BKN010,0.01,VWS V14.00,2013-11-21 17:15:00,
2013-11-21 11:20:00,14.4,5.1,30.54,NNW,340,13.0,15.0,66,0.00,,BKN010,0.01,VWS V14.00,2013-11-21 17:20:00,
2013-11-21 11:25:00,14.5,5.2,30.54,NNW,346,10.0,18.0,66,0.00,,BKN010,0.01,VWS V14.00,2013-11-21 17:25:00,
2013-11-21 11:30:00,14.5,5.2,30.54,NNW,346,13.0,17.0,66,0.00,,BKN010,0.01,VWS V14.00,2013-11-21 17:30:00,
2013-11-21 11:35:00,14.4,5.1,30.54,NNW,329,19.0,20.0,66,0.00,,BKN010,0.01,VWS V14.00,2013-11-21 17:35:00,
2013-11-21 11:40:00,14.4,4.8,30.53,NNW,327,13.0,15.0,65,0.00,,BKN010,0.01,VWS V14.00,2013-11-21 17:40:00,
2013-11-21 11:45:00,14.4,4.8,30.53,NNW,348,11.0,18.0,65,0.00,,BKN010,0.01,VWS V14.00,2013-11-21 17:45:00,
2013-11-21 11:50:00,14.5,4.9,30.53,NNW,334,16.0,16.0,65,0.00,,BKN010,0.01,VWS V14.00,2013-11-21 17:50:00,
2013-11-21 11:55:00,14.6,5.0,30.53,NNW,346,5.0,22.0,65,0.00,,BKN010,0.01,VWS V14.00,2013-11-21 17:55:00,
2013-11-21 12:00:00,14.8,5.2,30.53,North,358,14.0,15.0,65,0.00,,BKN010,0.01,VWS V14.00,2013-11-21 18:00:00,
2013-11-21 12:05:00,15.1,5.5,30.53,NNW,348,9.0,18.0,65,0.00,,OVC012,0.01,VWS V14.00,2013-11-21 18:05:00,
2013-11-21 12:10:00,15.3,5.7,30.53,NW,326,13.0,14.0,65,0.00,,OVC012,0.01,VWS V14.00,2013-11-21 18:10:00,
2013-11-21 12:15:00,15.3,5.7,30.53,North,357,12.0,17.0,65,0.00,,OVC012,0.01,VWS V14.00,2013-11-21 18:15:00,
2013-11-21 12:20:00,15.5,5.5,30.53,NNW,337,12.0,20.0,64,0.00,,OVC012,0.01,VWS V14.00,2013-11-21 18:20:00,
2013-11-21 12:25:00,15.4,5.4,30.54,NNW,339,5.0,20.0,64,0.00,,OVC012,0.01,VWS V14.00,2013-11-21 18:25:00,
2013-11-21 12:30:00,15.5,5.5,30.54,NW,324,7.0,14.0,64,0.00,,OVC012,0.01,VWS V14.00,2013-11-21 18:30:00,
2013-11-21 12:35:00,15.4,5.4,30.54,NNW,333,8.0,16.0,64,0.00,,OVC012,0.01,VWS V14.00,2013-11-21 18:35:00,
2013-11-21 12:40:00,15.0,4.7,30.55,NNW,335,7.0,15.0,63,0.00,,OVC012,0.01,VWS V14.00,2013-11-21 18:40:00,
2013-11-21 12:45:00,14.9,4.9,30.55,NNW,335,13.0,17.0,64,0.00,,OVC012,0.01,VWS V14.00,2013-11-21 18:45:00,
2013-11-21 12:50:00,14.9,5.3,30.54,NNW,340,10.0,14.0,65,0.00,,OVC012,0.01,VWS V14.00,2013-11-21 18:50:00,
2013-11-21 12:55:00,15.1,5.5,30.54,North,353,7.0,17.0,65,0.00,,OVC012,0.01,VWS V14.00,2013-11-21 18:55:00,
2013-11-21 13:00:00,15.2,5.2,30.55,North,352,7.0,13.0,64,0.00,,BKN014,0.01,VWS V14.00,2013-11-21 19:00:00,
2013-11-21 13:05:00,15.0,5.0,30.55,NNW,346,3.0,17.0,64,0.00,,BKN014,0.01,VWS V14.00,2013-11-21 19:05:00,
2013-11-21 13:10:00,14.9,4.9,30.55,NNW,345,9.0,13.0,64,0.00,,BKN014,0.01,VWS V14.00,2013-11-21 19:10:00,
2013-11-21 13:15:00,15.0,5.4,30.55,NNW,332,8.0,13.0,65,0.00,,BKN014,0.01,VWS V14.00,2013-11-21 19:15:00,
2013-11-21 13:20:00,15.0,5.0,30.55,NW,311,5.0,13.0,64,0.00,,BKN014,0.01,VWS V14.00,2013-11-21 19:20:00,
2013-11-21 13:25:00,14.9,4.9,30.55,NNW,328,11.0,13.0,64,0.00,,BKN014,0.01,VWS V14.00,2013-11-21 19:25:00,
2013-11-21 13:30:00,14.8,4.8,30.55,North,357,6.0,17.0,64,0.00,,BKN014,0.01,VWS V14.00,2013-11-21 19:30:00,
2013-11-21 13:35:00,14.8,4.8,30.55,North,352,4.0,17.0,64,0.00,,BKN014,0.01,VWS V14.00,2013-11-21 19:35:00,
2013-11-21 13:40:00,14.9,4.9,30.55,NNW,336,0.0,12.0,64,0.00,,BKN014,0.01,VWS V14.00,2013-11-21 19:40:00,
2013-11-21 13:45:00,15.0,5.0,30.55,NNW,339,12.0,17.0,64,0.00,,BKN014,0.01,VWS V14.00,2013-11-21 19:45:00,
2013-11-21 13:50:00,15.1,5.1,30.55,NW,320,12.0,14.0,64,0.00,,BKN014,0.01,VWS V14.00,2013-11-21 19:50:00,
2013-11-21 13:55:00,15.2,5.2,30.55,NNW,336,11.0,16.0,64,0.00,,BKN014,0.01,VWS V14.00,2013-11-21 19:55:00,
2013-11-21 14:00:00,15.2,5.2,30.55,NNW,337,7.0,16.0,64,0.00,,BKN014,0.01,VWS V14.00,2013-11-21 20:00:00,
2013-11-21 14:05:00,15.1,5.1,30.55,NW,321,6.0,16.0,64,0.00,,BKN014,0.01,VWS V14.00,2013-11-21 20:05:00,
2013-11-21 14:10:00,15.0,4.7,30.55,NNW,330,9.0,15.0,63,0.00,,BKN014,0.01,VWS V14.00,2013-11-21 20:10:00,
2013-11-21 14:15:00,14.9,4.6,30.55,NNW,344,9.0,16.0,63,0.00,,BKN014,0.01,VWS V14.00,2013-11-21 20:15:00,
2013-11-21 14:20:00,15.0,4.7,30.55,NW,323,11.0,12.0,63,0.00,,BKN014,0.01,VWS V14.00,2013-11-21 20:20:00,
2013-11-21 14:25:00,15.0,4.7,30.55,North,356,11.0,16.0,63,0.00,,BKN014,0.01,VWS V14.00,2013-11-21 20:25:00,
2013-11-21 14:31:00,15.0,4.7,30.55,NNW,348,0.0,8.0,63,0.00,,SCT014,0.01,VWS V14.00,2013-11-21 20:31:00,
2013-11-21 14:36:00,15.1,4.8,30.55,NW,316,5.0,13.0,63,0.00,,SCT014,0.01,VWS V14.00,2013-11-21 20:36:00,
2013-11-21 14:41:00,14.9,4.6,30.55,NNW,331,8.0,15.0,63,0.00,,SCT014,0.01,VWS V14.00,2013-11-21 20:41:00,
2013-11-21 14:46:00,14.8,4.5,30.55,NNW,347,7.0,15.0,63,0.00,,SCT014,0.01,VWS V14.00,2013-11-21 20:46:00,
2013-11-21 14:51:00,14.8,4.5,30.55,NW,318,1.0,14.0,63,0.00,,SCT014,0.01,VWS V14.00,2013-11-21 20:51:00,
2013-11-21 14:56:00,14.6,4.3,30.55,NNW,345,9.0,14.0,63,0.00,,SCT014,0.01,VWS V14.00,2013-11-21 20:56:00,
2013-11-21 15:01:00,14.5,4.2,30.55,NNW,339,6.0,15.0,63,0.00,,FEW014,0.01,VWS V14.00,2013-11-21 21:01:00,
2013-11-21 15:06:00,14.3,3.7,30.55,NNW,336,2.0,15.0,62,0.00,,FEW014,0.01,VWS V14.00,2013-11-21 21:06:00,
2013-11-21 15:11:00,14.3,3.7,30.55,WNW,303,3.0,14.0,62,0.00,,FEW014,0.01,VWS V14.00,2013-11-21 21:11:00,
2013-11-21 15:16:00,14.2,3.6,30.55,NNW,329,7.0,14.0,62,0.00,,FEW014,0.01,VWS V14.00,2013-11-21 21:16:00,
2013-11-21 15:21:00,14.3,4.0,30.56,NNW,327,7.0,13.0,63,0.00,,FEW014,0.01,VWS V14.00,2013-11-21 21:21:00,
2013-11-21 15:26:00,14.4,3.8,30.56,NW,325,3.0,13.0,62,0.00,,FEW014,0.01,VWS V14.00,2013-11-21 21:26:00,
2013-11-21 15:31:00,14.4,3.8,30.56,NW,323,3.0,10.0,62,0.00,,FEW014,0.01,VWS V14.00,2013-11-21 21:31:00,
2013-11-21 15:36:00,14.2,3.6,30.56,NNW,336,4.0,14.0,62,0.00,,FEW014,0.01,VWS V14.00,2013-11-21 21:36:00,
2013-11-21 15:41:00,13.9,3.3,30.57,NNW,331,5.0,11.0,62,0.00,,FEW014,0.01,VWS V14.00,2013-11-21 21:41:00,
2013-11-21 15:46:00,13.7,3.1,30.57,NW,315,1.0,13.0,62,0.00,,FEW014,0.01,VWS V14.00,2013-11-21 21:46:00,
2013-11-21 15:51:00,13.6,3.0,30.58,NW,325,9.0,10.0,62,0.00,,FEW014,0.01,VWS V14.00,2013-11-21 21:51:00,
2013-11-21 15:56:00,13.5,3.3,30.58,NNW,340,6.0,11.0,63,0.00,,FEW014,0.01,VWS V14.00,2013-11-21 21:56:00,
2013-11-21 16:01:00,13.5,3.3,30.58,NW,315,7.0,11.0,63,0.00,,CLR,0.01,VWS V14.00,2013-11-21 22:01:00,
2013-11-21 16:06:00,13.3,3.1,30.58,NW,324,2.0,13.0,63,0.00,,CLR,0.01,VWS V14.00,2013-11-21 22:06:00,
2013-11-21 16:11:00,13.1,2.9,30.58,NNW,332,6.0,12.0,63,0.00,,CLR,0.01,VWS V14.00,2013-11-21 22:11:00,
2013-11-21 16:16:00,13.0,2.8,30.58,NNW,337,8.0,14.0,63,0.00,,CLR,0.01,VWS V14.00,2013-11-21 22:16:00,
2013-11-21 16:21:00,13.0,2.8,30.59,NW,323,2.0,10.0,63,0.00,,CLR,0.01,VWS V14.00,2013-11-21 22:21:00,
2013-11-21 16:26:00,12.8,2.6,30.59,NNW,333,9.0,14.0,63,0.00,,CLR,0.01,VWS V14.00,2013-11-21 22:26:00,
2013-11-21 16:31:00,12.7,2.2,30.60,NW,324,2.0,9.0,62,0.00,,CLR,0.01,VWS V14.00,2013-11-21 22:31:00,
2013-11-21 16:36:00,12.6,2.1,30.60,NW,322,7.0,10.0,62,0.00,,CLR,0.01,VWS V14.00,2013-11-21 22:36:00,
2013-11-21 16:41:00,12.5,2.3,30.60,NW,324,0.0,4.0,63,0.00,,CLR,0.01,VWS V14.00,2013-11-21 22:41:00,
2013-11-21 16:46:00,12.4,1.9,30.61,NNW,337,2.0,10.0,62,0.00,,CLR,0.01,VWS V14.00,2013-11-21 22:46:00,
2013-11-21 16:51:00,12.3,1.8,30.61,NNW,329,5.0,9.0,62,0.00,,CLR,0.01,VWS V14.00,2013-11-21 22:51:00,
2013-11-21 16:56:00,12.3,1.8,30.61,NW,325,1.0,9.0,62,0.00,,CLR,0.01,VWS V14.00,2013-11-21 22:56:00,
2013-11-21 17:01:00,12.2,1.7,30.61,NW,316,5.0,7.0,62,0.00,,CLR,0.01,VWS V14.00,2013-11-21 23:01:00,
2013-11-21 17:06:00,12.1,1.6,30.62,NW,321,3.0,11.0,62,0.00,,CLR,0.01,VWS V14.00,2013-11-21 23:06:00,
2013-11-21 17:11:00,12.0,1.5,30.62,NW,308,6.0,12.0,62,0.00,,CLR,0.01,VWS V14.00,2013-11-21 23:11:00,
2013-11-21 17:16:00,11.9,1.0,30.62,NW,309,9.0,13.0,61,0.00,,CLR,0.01,VWS V14.00,2013-11-21 23:16:00,
2013-11-21 17:21:00,11.8,1.0,30.62,NW,308,4.0,11.0,61,0.00,,CLR,0.01,VWS V14.00,2013-11-21 23:21:00,
2013-11-21 17:26:00,11.7,0.9,30.61,NW,307,7.0,12.0,61,0.00,,CLR,0.01,VWS V14.00,2013-11-21 23:26:00,
2013-11-21 17:31:00,11.7,0.9,30.62,NW,304,3.0,11.0,61,0.00,,CLR,0.01,VWS V14.00,2013-11-21 23:31:00,
2013-11-21 17:36:00,11.7,0.9,30.62,NW,309,4.0,11.0,61,0.00,,CLR,0.01,VWS V14.00,2013-11-21 23:36:00,
2013-11-21 17:41:00,11.5,1.0,30.62,NW,313,3.0,5.0,62,0.00,,CLR,0.01,VWS V14.00,2013-11-21 23:41:00,
2013-11-21 17:46:00,11.5,1.0,30.62,NW,313,0.0,6.0,62,0.00,,CLR,0.01,VWS V14.00,2013-11-21 23:46:00,
2013-11-21 17:51:00,11.4,0.9,30.62,NW,313,0.0,4.0,62,0.00,,CLR,0.01,VWS V14.00,2013-11-21 23:51:00,
2013-11-21 17:56:00,11.3,1.2,30.62,NW,315,2.0,8.0,63,0.00,,CLR,0.01,VWS V14.00,2013-11-21 23:56:00,
2013-11-21 18:01:00,11.3,0.8,30.62,NW,315,2.0,5.0,62,0.00,,CLR,0.01,VWS V14.00,2013-11-22 00:01:00,
2013-11-21 18:06:00,11.2,1.1,30.62,NW,316,3.0,8.0,63,0.00,,CLR,0.01,VWS V14.00,2013-11-22 00:06:00,
2013-11-21 18:11:00,11.2,1.1,30.62,NW,322,6.0,9.0,63,0.00,,CLR,0.01,VWS V14.00,2013-11-22 00:11:00,
2013-11-21 18:16:00,11.2,1.1,30.62,NW,319,0.0,10.0,63,0.00,,CLR,0.01,VWS V14.00,2013-11-22 00:16:00,
2013-11-21 18:21:00,11.2,1.1,30.63,NW,322,8.0,9.0,63,0.00,,CLR,0.01,VWS V14.00,2013-11-22 00:21:00,
2013-11-21 18:27:00,11.2,1.1,30.63,NW,317,0.0,9.0,63,0.00,,CLR,0.01,VWS V14.00,2013-11-22 00:27:00,
2013-11-21 18:32:00,11.1,1.0,30.63,NW,316,5.0,7.0,63,0.00,,CLR,0.01,VWS V14.00,2013-11-22 00:32:00,
2013-11-21 18:37:00,11.1,1.0,30.63,NW,316,4.0,7.0,63,0.00,,CLR,0.01,VWS V14.00,2013-11-22 00:37:00,
2013-11-21 18:42:00,11.1,1.0,30.63,NW,316,0.0,5.0,63,0.00,,CLR,0.01,VWS V14.00,2013-11-22 00:42:00,
2013-11-21 18:47:00,11.2,1.1,30.63,NW,316,2.0,5.0,63,0.00,,CLR,0.01,VWS V14.00,2013-11-22 00:47:00,
2013-11-21 18:52:00,11.2,1.1,30.63,NW,316,0.0,7.0,63,0.00,,CLR,0.01,VWS V14.00,2013-11-22 00:52:00,
2013-11-21 18:57:00,11.3,1.5,30.63,NW,312,5.0,9.0,64,0.00,,CLR,0.01,VWS V14.00,2013-11-22 00:57:00,
2013-11-21 19:02:00,11.2,1.4,30.63,NW,313,2.0,9.0,64,0.00,,CLR,0.01,VWS V14.00,2013-11-22 01:02:00,
2013-11-21 19:07:00,11.2,1.1,30.63,NW,313,5.0,9.0,63,0.00,,CLR,0.01,VWS V14.00,2013-11-22 01:07:00,
2013-11-21 19:12:00,11.2,1.1,30.63,NW,314,1.0,8.0,63,0.00,,CLR,0.01,VWS V14.00,2013-11-22 01:12:00,
2013-11-21 19:17:00,11.1,1.0,30.63,NW,314,0.0,8.0,63,0.00,,CLR,0.01,VWS V14.00,2013-11-22 01:17:00,
2013-11-21 19:22:00,11.1,1.0,30.62,NW,315,0.0,8.0,63,0.00,,CLR,0.01,VWS V14.00,2013-11-22 01:22:00,
2013-11-21 19:27:00,11.0,1.2,30.62,NW,315,0.0,8.0,64,0.00,,CLR,0.01,VWS V14.00,2013-11-22 01:27:00,
2013-11-21 19:32:00,10.8,1.0,30.62,NW,316,0.0,4.0,64,0.00,,CLR,0.01,VWS V14.00,2013-11-22 01:32:00,
2013-11-21 19:37:00,10.6,0.8,30.63,NW,321,2.0,9.0,64,0.00,,CLR,0.01,VWS V14.00,2013-11-22 01:37:00,
2013-11-21 19:42:00,10.6,0.8,30.63,NW,321,0.0,4.0,64,0.00,,CLR,0.01,VWS V14.00,2013-11-22 01:42:00,
2013-11-21 19:47:00,10.4,0.6,30.63,NW,321,1.0,5.0,64,0.00,,CLR,0.01,VWS V14.00,2013-11-22 01:47:00,
2013-11-21 19:52:00,10.2,0.5,30.62,NW,321,0.0,6.0,64,0.00,,CLR,0.01,VWS V14.00,2013-11-22 01:52:00,
2013-11-21 19:57:00,10.1,0.4,30.62,NW,321,2.0,6.0,64,0.00,,CLR,0.01,VWS V14.00,2013-11-22 01:57:00,
2013-11-21 20:02:00,10.0,0.3,30.62,NW,321,3.0,5.0,64,0.00,,CLR,0.01,VWS V14.00,2013-11-22 02:02:00,
2013-11-21 20:07:00,9.9,0.2,30.62,NW,321,0.0,6.0,64,0.00,,CLR,0.01,VWS V14.00,2013-11-22 02:07:00,
2013-11-21 20:08:00,9.9,0.2,30.62,NW,321,0.0,6.0,64,0.00,,CLR,0.01,VWS V14.00,2013-11-22 02:08:00,
2013-11-21 20:09:00,9.8,0.1,30.62,NW,321,4.0,6.0,64,0.00,,CLR,0.01,VWS V14.00,2013-11-22 02:09:00,
2013-11-21 20:15:00,9.7,0.0,30.62,NW,321,5.0,6.0,64,0.00,,CLR,0.01,VWS V14.00,2013-11-22 02:15:00,
2013-11-21 20:20:00,9.7,0.0,30.62,NW,321,3.0,3.0,64,0.00,,CLR,0.01,VWS V14.00,2013-11-22 02:20:00,
2013-11-21 20:25:00,9.6,-0.1,30.62,NW,321,4.0,5.0,64,0.00,,CLR,0.01,VWS V14.00,2013-11-22 02:25:00,
2013-11-21 20:30:00,9.5,-0.2,30.62,NW,321,0.0,0.0,64,0.00,,CLR,0.01,VWS V14.00,2013-11-22 02:30:00,
2013-11-21 20:35:00,9.2,-0.5,30.62,NW,321,0.0,2.0,64,0.00,,CLR,0.01,VWS V14.00,2013-11-22 02:35:00,
2013-11-21 20:40:00,9.1,-0.3,30.62,NW,321,1.0,1.0,65,0.00,,CLR,0.01,VWS V14.00,2013-11-22 02:40:00,
2013-11-21 20:45:00,9.0,-0.4,30.62,NW,321,2.0,4.0,65,0.00,,CLR,0.01,VWS V14.00,2013-11-22 02:45:00,
2013-11-21 20:50:00,8.8,-0.6,30.62,NW,321,3.0,4.0,65,0.00,,CLR,0.01,VWS V14.00,2013-11-22 02:50:00,
2013-11-21 20:55:00,8.8,-0.6,30.62,NW,321,0.0,6.0,65,0.00,,CLR,0.01,VWS V14.00,2013-11-22 02:55:00,
2013-11-21 21:00:00,8.7,-0.6,30.61,NW,321,2.0,3.0,65,0.00,,CLR,0.01,VWS V14.00,2013-11-22 03:00:00,
2013-11-21 21:05:00,8.7,-1.0,30.61,NW,321,1.0,5.0,64,0.00,,CLR,0.01,VWS V14.00,2013-11-22 03:05:00,
2013-11-21 21:10:00,8.6,-1.1,30.61,NW,320,1.0,2.0,64,0.00,,CLR,0.01,VWS V14.00,2013-11-22 03:10:00,
2013-11-21 21:15:00,8.5,-1.2,30.61,NW,321,0.0,4.0,64,0.00,,CLR,0.01,VWS V14.00,2013-11-22 03:15:00,
2013-11-21 21:20:00,8.4,-1.3,30.61,NW,321,0.0,0.0,64,0.00,,CLR,0.01,VWS V14.00,2013-11-22 03:20:00,
2013-11-21 21:25:00,8.2,-1.5,30.61,NW,321,0.0,0.0,64,0.00,,CLR,0.01,VWS V14.00,2013-11-22 03:25:00,
2013-11-21 21:30:00,8.0,-1.6,30.61,NW,321,0.0,0.0,64,0.00,,CLR,0.01,VWS V14.00,2013-11-22 03:30:00,
2013-11-21 21:35:00,8.0,-1.6,30.61,NW,321,2.0,4.0,64,0.00,,CLR,0.01,VWS V14.00,2013-11-22 03:35:00,
2013-11-21 21:40:00,8.0,-1.3,30.61,NW,321,2.0,3.0,65,0.00,,CLR,0.01,VWS V14.00,2013-11-22 03:40:00,
2013-11-21 21:45:00,8.1,-1.2,30.61,NW,321,0.0,3.0,65,0.00,,CLR,0.01,VWS V14.00,2013-11-22 03:45:00,
2013-11-21 21:50:00,8.1,-1.2,30.61,NW,320,3.0,3.0,65,0.00,,CLR,0.01,VWS V14.00,2013-11-22 03:50:00,
2013-11-21 21:55:00,8.0,-1.3,30.62,NW,315,3.0,6.0,65,0.00,,CLR,0.01,VWS V14.00,2013-11-22 03:55:00,
2013-11-21 22:00:00,8.0,-1.3,30.62,NW,307,2.0,2.0,65,0.00,,CLR,0.01,VWS V14.00,2013-11-22 04:00:00,
2013-11-21 22:05:00,8.0,-1.6,30.62,NW,307,1.0,5.0,64,0.00,,CLR,0.01,VWS V14.00,2013-11-22 04:05:00,
2013-11-21 22:10:00,7.9,-1.7,30.62,NW,307,2.0,4.0,64,0.00,,CLR,0.01,VWS V14.00,2013-11-22 04:10:00,
2013-11-21 22:15:00,7.8,-1.8,30.62,NW,307,2.0,5.0,64,0.00,,CLR,0.01,VWS V14.00,2013-11-22 04:15:00,
2013-11-21 22:20:00,7.7,-2.3,30.62,NW,307,1.0,3.0,63,0.00,,CLR,0.01,VWS V14.00,2013-11-22 04:20:00,
2013-11-21 22:25:00,7.7,-2.6,30.61,NW,307,0.0,3.0,62,0.00,,CLR,0.01,VWS V14.00,2013-11-22 04:25:00,
2013-11-21 22:30:00,7.7,-2.6,30.61,NW,307,0.0,0.0,62,0.00,,CLR,0.01,VWS V14.00,2013-11-22 04:30:00,
2013-11-21 22:35:00,7.7,-2.6,30.61,NW,307,0.0,0.0,62,0.00,,CLR,0.01,VWS V14.00,2013-11-22 04:35:00,
2013-11-21 22:40:00,7.8,-2.5,30.61,NW,307,0.0,0.0,62,0.00,,CLR,0.01,VWS V14.00,2013-11-22 04:40:00,
2013-11-21 22:45:00,7.7,-2.6,30.61,NW,307,0.0,0.0,62,0.00,,CLR,0.01,VWS V14.00,2013-11-22 04:45:00,
2013-11-21 22:50:00,7.7,-2.9,30.61,NW,307,0.0,0.0,61,0.00,,CLR,0.01,VWS V14.00,2013-11-22 04:50:00,
2013-11-21 22:55:00,7.7,-2.9,30.61,NW,307,0.0,0.0,61,0.00,,CLR,0.01,VWS V14.00,2013-11-22 04:55:00,
2013-11-21 23:00:00,7.7,-2.9,30.61,NW,307,0.0,0.0,61,0.00,,CLR,0.01,VWS V14.00,2013-11-22 05:00:00,
2013-11-21 23:01:00,7.7,-2.9,30.61,NW,307,0.0,0.0,61,0.00,,CLR,0.01,VWS V14.00,2013-11-22 05:01:00,
2013-11-21 23:04:00,7.6,-3.0,30.61,NW,307,0.0,0.0,61,0.00,,CLR,0.01,VWS V14.00,2013-11-22 05:04:00,
2013-11-21 23:09:00,7.5,-3.1,30.60,NW,307,0.0,0.0,61,0.00,,CLR,0.01,VWS V14.00,2013-11-22 05:09:00,
2013-11-21 23:14:00,7.3,-3.3,30.60,NW,307,0.0,0.0,61,0.00,,CLR,0.01,VWS V14.00,2013-11-22 05:14:00,
2013-11-21 23:19:00,7.2,-3.4,30.60,NW,307,0.0,0.0,61,0.00,,CLR,0.01,VWS V14.00,2013-11-22 05:19:00,
2013-11-21 23:24:00,7.1,-3.5,30.60,NW,307,0.0,1.0,61,0.00,,CLR,0.01,VWS V14.00,2013-11-22 05:24:00,
2013-11-21 23:30:00,7.0,-3.3,30.60,NW,307,0.0,1.0,62,0.00,,CLR,0.01,VWS V14.00,2013-11-22 05:30:00,
2013-11-21 23:35:00,6.9,-3.3,30.60,NW,307,0.0,0.0,62,0.00,,CLR,0.01,VWS V14.00,2013-11-22 05:35:00,
2013-11-21 23:40:00,6.8,-3.5,30.60,NW,307,0.0,0.0,62,0.00,,CLR,0.01,VWS V14.00,2013-11-22 05:40:00,
2013-11-21 23:45:00,6.8,-3.5,30.60,NW,307,1.0,1.0,62,0.00,,CLR,0.01,VWS V14.00,2013-11-22 05:45:00,
2013-11-21 23:50:00,6.7,-3.5,30.60,NW,307,0.0,0.0,62,0.00,,CLR,0.01,VWS V14.00,2013-11-22 05:50:00,
2013-11-21 23:55:00,6.6,-3.3,30.59,NW,307,0.0,0.0,63,0.00,,CLR,0.01,VWS V14.00,2013-11-22 05:55:00,